TimeCDT,TemperatureF,Dew PointF,Humidity,Sea Level PressureIn,VisibilityMPH,Wind Direction,Wind SpeedMPH,Gust SpeedMPH,PrecipitationIn,Events,Conditions,WindDirDegrees,DateUTC
12:15 AM,42.4,36.7,80,30.13,10.0,NNW,18.4,31.1,N/A,,Overcast,330,2012-10-26 05:15:00
12:35 AM,42.8,35.6,76,30.15,10.0,NNW,18.4,25.3,N/A,,Overcast,330,2012-10-26 05:35:00
12:55 AM,41.0,33.3,74,30.16,10.0,NW,17.3,26.5,N/A,,Mostly Cloudy,320,2012-10-26 05:55:00
1:15 AM,39.2,33.8,81,30.17,10.0,NW,16.1,-,N/A,,Scattered Clouds,320,2012-10-26 06:15:00
1:35 AM,39.6,33.1,78,30.17,10.0,NW,12.7,-,N/A,,Clear,320,2012-10-26 06:35:00
1:55 AM,39.6,33.1,78,30.18,10.0,NW,15.0,19.6,N/A,,Clear,320,2012-10-26 06:55:00
2:15 AM,39.0,32.4,77,30.18,10.0,NW,13.8,-,N/A,,Clear,320,2012-10-26 07:15:00
2:35 AM,38.8,32.4,78,30.20,10.0,NW,15.0,20.7,N/A,,Scattered Clouds,320,2012-10-26 07:35:00
2:55 AM,39.6,32.2,75,30.20,10.0,NNW,15.0,21.9,N/A,,Overcast,330,2012-10-26 07:55:00
3:15 AM,39.7,32.4,75,30.21,10.0,NNW,11.5,-,N/A,,Overcast,330,2012-10-26 08:15:00
3:35 AM,40.3,32.2,73,30.22,10.0,NNW,11.5,-,N/A,,Overcast,330,2012-10-26 08:35:00
3:55 AM,40.5,32.0,72,30.23,10.0,NNW,15.0,21.9,N/A,,Overcast,330,2012-10-26 08:55:00
4:15 AM,40.3,32.0,72,30.23,10.0,NNW,15.0,19.6,N/A,,Overcast,340,2012-10-26 09:15:00
4:35 AM,40.1,31.8,72,30.23,10.0,NNW,16.1,21.9,N/A,,Overcast,330,2012-10-26 09:35:00
4:55 AM,39.6,32.0,74,30.24,10.0,NW,9.2,-,N/A,,Overcast,320,2012-10-26 09:55:00
5:15 AM,38.8,32.0,76,30.25,10.0,NNW,8.1,-,N/A,,Mostly Cloudy,330,2012-10-26 10:15:00
5:35 AM,37.4,31.6,80,30.25,10.0,NW,9.2,-,N/A,,Scattered Clouds,320,2012-10-26 10:35:00
5:55 AM,36.9,30.9,79,30.25,10.0,NW,9.2,-,N/A,,Clear,320,2012-10-26 10:55:00
6:15 AM,36.3,30.9,81,30.26,10.0,NW,9.2,-,N/A,,Scattered Clouds,320,2012-10-26 11:15:00
6:35 AM,35.4,30.4,82,30.27,10.0,NW,8.1,-,N/A,,Scattered Clouds,320,2012-10-26 11:35:00
6:55 AM,34.5,30.2,84,30.28,10.0,NW,8.1,-,N/A,,Clear,320,2012-10-26 11:55:00
7:15 AM,35.1,30.2,82,30.29,10.0,NW,9.2,-,N/A,,Clear,320,2012-10-26 12:15:00
7:35 AM,34.7,30.2,84,30.30,10.0,NW,10.4,-,N/A,,Clear,310,2012-10-26 12:35:00
7:55 AM,35.6,30.2,81,30.30,10.0,NW,11.5,-,N/A,,Clear,310,2012-10-26 12:55:00
8:15 AM,36.1,30.9,81,30.31,10.0,NW,13.8,-,N/A,,Mostly Cloudy,310,2012-10-26 13:15:00
8:35 AM,37.4,32.0,81,30.32,10.0,NW,15.0,-,N/A,,Scattered Clouds,310,2012-10-26 13:35:00
8:55 AM,37.8,32.0,80,30.33,10.0,NW,17.3,-,N/A,,Clear,320,2012-10-26 13:55:00
9:15 AM,39.6,32.2,75,30.34,10.0,NW,17.3,-,N/A,,Clear,320,2012-10-26 14:15:00
9:35 AM,41.0,32.0,70,30.34,10.0,NNW,15.0,-,N/A,,Clear,330,2012-10-26 14:35:00
9:55 AM,41.0,31.1,68,30.34,10.0,NNW,18.4,-,N/A,,Clear,340,2012-10-26 14:55:00
10:15 AM,41.4,30.9,66,30.35,10.0,NNW,16.1,-,N/A,,Clear,340,2012-10-26 15:15:00
10:35 AM,41.9,30.7,65,30.34,10.0,North,11.5,-,N/A,,Scattered Clouds,360,2012-10-26 15:35:00
10:55 AM,42.4,30.2,62,30.34,10.0,NNW,12.7,-,N/A,,Scattered Clouds,340,2012-10-26 15:55:00
11:15 AM,43.0,30.4,61,30.34,10.0,NNW,12.7,18.4,N/A,,Clear,340,2012-10-26 16:15:00
11:35 AM,43.3,31.1,62,30.34,10.0,North,15.0,-,N/A,,Scattered Clouds,350,2012-10-26 16:35:00
11:55 AM,43.9,31.1,61,30.34,10.0,North,8.1,-,N/A,,Scattered Clouds,360,2012-10-26 16:55:00
12:15 PM,44.8,31.8,60,30.34,10.0,North,12.7,-,N/A,,Scattered Clouds,10,2012-10-26 17:15:00
12:35 PM,45.0,31.5,59,30.33,10.0,North,9.2,-,N/A,,Scattered Clouds,10,2012-10-26 17:35:00
12:55 PM,46.4,30.2,53,30.33,10.0,North,10.4,-,N/A,,Scattered Clouds,10,2012-10-26 17:55:00
1:15 PM,46.0,29.8,53,30.33,10.0,NNE,6.9,10.4,N/A,,Clear,20,2012-10-26 18:15:00
1:35 PM,46.8,29.8,52,30.32,10.0,North,9.2,-,N/A,,Clear,360,2012-10-26 18:35:00
1:55 PM,46.6,29.8,52,30.31,10.0,NNE,6.9,-,N/A,,Clear,30,2012-10-26 18:55:00
2:15 PM,48.2,30.2,50,30.31,10.0,North,11.5,-,N/A,,Clear,360,2012-10-26 19:15:00
2:35 PM,48.2,29.1,48,30.31,10.0,North,10.4,-,N/A,,Clear,350,2012-10-26 19:35:00
2:55 PM,48.4,29.1,47,30.30,10.0,NNW,9.2,-,N/A,,Clear,340,2012-10-26 19:55:00
3:15 PM,48.7,28.8,46,30.30,10.0,NNW,8.1,-,N/A,,Clear,340,2012-10-26 20:15:00
3:35 PM,48.7,29.1,47,30.30,10.0,NNW,10.4,-,N/A,,Clear,340,2012-10-26 20:35:00
3:55 PM,48.6,28.9,47,30.30,10.0,NW,11.5,-,N/A,,Clear,320,2012-10-26 20:55:00
4:15 PM,48.6,30.0,49,30.29,10.0,NNW,12.7,-,N/A,,Clear,330,2012-10-26 21:15:00
4:35 PM,47.8,29.5,49,30.30,10.0,NNW,13.8,-,N/A,,Clear,340,2012-10-26 21:35:00
4:55 PM,47.3,29.7,50,30.29,10.0,NNW,9.2,-,N/A,,Clear,340,2012-10-26 21:55:00
5:15 PM,46.8,30.6,53,30.29,10.0,NNW,9.2,-,N/A,,Clear,340,2012-10-26 22:15:00
5:35 PM,46.4,31.6,56,30.29,10.0,NNW,8.1,-,N/A,,Clear,330,2012-10-26 22:35:00
5:55 PM,45.9,31.8,58,30.29,10.0,NW,9.2,-,N/A,,Clear,320,2012-10-26 22:55:00
6:15 PM,45.1,31.8,60,30.29,10.0,NNW,9.2,-,N/A,,Clear,330,2012-10-26 23:15:00
6:35 PM,44.8,31.8,60,30.29,10.0,NNW,8.1,-,N/A,,Clear,340,2012-10-26 23:35:00
6:55 PM,43.9,32.0,63,30.30,10.0,NNW,6.9,-,N/A,,Clear,330,2012-10-26 23:55:00
7:15 PM,43.3,32.0,64,30.30,10.0,NNW,9.2,-,N/A,,Clear,330,2012-10-27 00:15:00
7:35 PM,42.1,32.2,68,30.30,10.0,NNW,8.1,-,N/A,,Clear,330,2012-10-27 00:35:00
7:55 PM,41.0,32.0,70,30.31,10.0,NNW,6.9,-,N/A,,Clear,330,2012-10-27 00:55:00
8:15 PM,39.6,32.7,76,30.31,10.0,NW,8.1,-,N/A,,Clear,320,2012-10-27 01:15:00
8:35 PM,38.3,32.0,78,30.31,10.0,NW,8.1,-,N/A,,Clear,320,2012-10-27 01:35:00
8:55 PM,38.5,32.0,78,30.31,10.0,NNW,8.1,-,N/A,,Clear,330,2012-10-27 01:55:00
9:15 PM,38.3,31.5,76,30.32,10.0,NNW,8.1,-,N/A,,Clear,330,2012-10-27 02:15:00
9:35 PM,37.9,31.1,76,30.32,10.0,NNW,6.9,-,N/A,,Clear,340,2012-10-27 02:35:00
9:55 PM,38.3,30.9,75,30.32,10.0,NNW,6.9,-,N/A,,Clear,340,2012-10-27 02:55:00
10:15 PM,36.9,30.7,79,30.33,10.0,NNW,9.2,-,N/A,,Clear,330,2012-10-27 03:15:00
10:35 PM,36.9,30.7,79,30.33,10.0,NW,9.2,-,N/A,,Clear,320,2012-10-27 03:35:00
10:55 PM,35.6,30.2,81,30.33,10.0,NW,8.1,-,N/A,,Clear,320,2012-10-27 03:55:00
11:15 PM,35.2,30.9,84,30.33,10.0,NW,10.4,-,N/A,,Clear,320,2012-10-27 04:15:00
11:35 PM,36.0,30.9,82,30.33,10.0,NW,11.5,-,N/A,,Clear,320,2012-10-27 04:35:00
11:55 PM,36.0,30.7,81,30.33,10.0,NW,11.5,-,N/A,,Clear,320,2012-10-27 04:55:00